User: anonymous   Login
Location: Caltech
(34.1382°N, 118.1253°W)
Time: 20:08:03
(UTC-07:00)
Language:

Iridium 95 - Orbit

View from above orbital plane
View from above orbital plane
View from above satellite
View from above satellite

Ground track
Ground track

The orbit data is extracted from the following two-line orbital elements,

1 27375U 02005D   18147.50271481 -.00000025 +00000-0 -16092-4 0  9991
2 27375 086.3950 143.3157 0002954 076.2502 283.9022 14.34217755860237
Epoch (UTC): 27 May 2018 12:03:54
Eccentricity: 0.0002954
inclination: 86.3950°
perigee height: 775 km
apogee height: 780 km
right ascension of ascending node: 143.3157°
argument of perigee: 76.2502°
revolutions per day: 14.34217755
mean anomaly at epoch: 283.9022°
orbit number at epoch: 86023

The dashed part of the orbit path shows where the satellite is in the earth's shadow,  

DLR